Wind_Speed
27 28 28 29 28 29 29 30 30 29 27 25 25 24 24 24 24 23 22 22 22 21 21 21 21 22 21 22 22 22 22 22 22 23 23 23 23 23 23 23 24 25 25 25
29 30 30 30 30 30 30 30 31 31 30 28 27 26 26 25 25 25 24 23 23 23 24 24 24 24 24 24 24 25 24 25 25 24 24 25 25 26 26 26 26 25 25 26
31 31 32 32 30 31 31 31 31 32 31 30 29 28 27 26 25 25 25 25 25 25 25 25 26 27 27 27 27 27 27 26 27 27 27 27 27 28 28 27 26 26 26 28
33 33 34 32 31 32 32 32 32 31 31 30 29 29 29 27 27 26 26 26 27 28 28 28 28 29 29 28 27 28 28 28 28 28 28 29 29 28 27 26 27 27 27 28
34 35 35 32 32 32 32 32 31 32 31 31 31 31 30 29 29 29 28 28 27 28 29 30 30 31 30 29 29 29 30 30 29 30 30 30 29 28 27 27 27 27 27 28
35 36 36 33 33 33 33 33 32 33 33 32 32 32 31 30 30 31 31 30 29 29 30 31 31 31 31 30 30 30 30 29 30 30 30 30 29 28 28 29 28 27 28 29
35 36 36 34 34 34 34 33 33 33 33 33 32 32 31 31 31 32 32 32 31 31 32 32 33 32 31 31 31 32 32 31 31 30 30 30 30 29 28 27 27 28 28 29
35 37 36 34 34 35 35 34 33 33 34 34 33 33 32 32 32 33 34 34 33 32 33 34 34 33 32 32 32 33 33 32 31 30 31 31 30 30 29 29 28 28 29 30
36 37 36 35 35 35 36 35 35 34 34 35 34 34 34 34 34 35 35 34 34 35 35 34 34 34 34 34 33 33 32 31 30 30 31 31 31 31 31 31 30 30 31 31
36 35 36 36 36 35 36 36 36 36 36 36 37 36 37 36 35 35 34 34 35 35 34 34 35 35 35 34 34 33 32 31 31 31 32 33 33 33 33 33 33 33 33 33
36 36 36 35 36 36 36 36 36 35 35 36 36 36 36 36 35 34 35 35 36 36 35 35 36 35 35 35 34 34 33 33 33 33 34 33 33 33 34 33 34 34 34 34
35 35 35 34 35 36 36 35 35 35 35 36 36 36 35 35 35 35 36 36 36 36 36 36 36 36 35 35 35 34 34 34 34 35 35 34 34 34 33 34 33 33 34 34
33 34 34 34 34 35 35 34 34 34 34 34 34 34 35 35 35 36 36 36 36 36 36 36 36 36 35 35 35 35 34 34 34 34 34 34 34 33 33 33 32 32 33 33
32 32 32 32 33 34 34 33 33 33 34 34 34 33 34 34 35 36 36 37 36 36 36 36 36 35 35 35 35 35 35 35 34 34 34 33 33 33 33 33 32 32 32 31
31 31 31 31 32 32 33 33 33 33 34 34 33 34 34 34 35 35 35 36 36 36 35 35 35 34 34 34 33 34 34 34 34 34 34 33 32 32 33 33 33 32 31 31
28 28 29 30 30 31 31 32 32 33 33 33 34 34 34 34 35 35 35 36 35 34 35 35 34 33 34 34 33 34 34 34 34 34 34 34 33 33 33 33 32 31 31 31
25 25 26 28 28 28 29 29 31 32 32 32 33 33 33 34 34 35 35 35 35 33 33 33 33 33 33 33 33 33 34 34 34 35 35 35 33 33 32 32 32 31 31 31
24 24 25 26 27 28 29 29 30 30 30 30 31 32 32 32 33 34 34 33 33 32 31 31 32 32 33 33 33 33 33 33 33 33 33 33 32 31 31 31 31 31 32 32
23 24 24 25 26 27 28 29 29 29 29 29 29 29 30 32 32 32 32 32 31 31 30 29 30 31 31 32 33 32 32 32 32 32 32 31 30 30 29 29 30 30 30 31
23 24 25 26 26 27 27 28 28 27 28 28 28 29 29 29 30 30 29 29 29 28 28 28 29 29 30 31 31 30 30 30 30 29 29 29 29 28 28 28 28 28 29 28
22 23 24 25 25 26 26 27 27 27 27 27 27 27 27 28 29 29 28 28 28 27 26 27 28 27 28 28 28 28 28 28 28 27 27 28 27 27 27 28 28 28 27 27
21 21 21 22 23 24 25 25 26 26 26 27 27 27 27 27 27 27 27 27 26 26 25 26 26 26 26 27 27 28 28 28 27 27 27 27 27 27 27 27 27 27 26 26
20 20 20 20 21 22 23 23 24 25 25 25 25 25 25 24 24 24 24 25 25 25 24 25 25 26 26 26 27 27 26 26 26 26 26 26 26 26 26 26 26 26 26 26
19 19 19 20 20 20 21 21 22 23 23 23 23 23 23 23 23 23 23 23 22 23 24 24 24 25 25 25 25 25 25 24 24 25 25 25 25 25 25 25 25 25 26 25
18 18 18 18 19 19 19 20 20 20 21 21 21 22 21 21 22 22 22 22 22 23 23 24 24 23 23 23 23 23 23 23 23 24 24 24 25 25 25 25 25 24 24 24
17 17 18 18 18 18 19 19 19 19 19 20 20 20 20 20 21 21 20 21 21 21 21 22 22 22 22 22 21 21 22 22 23 23 23 23 23 23 23 24 24 24 24 23
17 17 16 16 16 17 17 17 17 18 18 19 19 19 19 19 19 20 20 20 20 20 21 22 22 22 22 21 21 21 21 22 22 22 21 21 22 23 23 23 23 23 23 23
Wind_Direction
253 252 252 253 256 257 260 263 265 266 268 270 273 273 274 277 279 282 284 286 289 292 290 290 291 294 294 294 293 293 293 294 293 293 293 293 293 289 287 289 287 284 282 282
255 255 254 255 256 258 261 262 263 265 266 269 270 272 273 275 277 279 280 281 284 286 286 286 286 289 290 289 289 290 290 291 291 293 292 292 292 292 291 292 288 285 283 281
257 258 257 257 258 260 262 263 265 266 268 269 269 270 271 274 275 276 277 278 281 283 284 286 287 289 288 288 289 290 290 291 290 291 292 293 292 291 290 289 286 285 285 284
255 257 258 261 261 261 263 264 265 267 268 268 269 270 269 271 274 274 276 280 281 283 285 285 288 290 289 293 293 293 293 292 290 291 294 293 291 288 287 286 285 286 286 286
254 256 259 261 262 263 265 265 265 266 269 270 270 270 269 271 273 273 274 278 280 283 285 285 287 290 292 294 294 294 294 293 292 291 292 292 290 286 285 285 286 287 287 287
255 257 259 261 264 266 267 267 267 268 269 271 271 270 271 271 271 271 272 275 278 281 284 286 287 289 292 292 293 293 294 293 292 292 291 291 290 286 286 285 286 288 289 291
257 259 260 262 263 265 266 269 269 269 269 270 270 270 270 269 269 269 271 273 276 279 282 284 286 288 290 291 291 292 292 291 291 291 290 290 290 289 287 286 287 288 289 292
257 259 261 262 262 264 266 268 269 268 267 269 269 269 269 269 268 268 271 272 275 277 280 282 285 287 288 288 289 290 290 290 290 289 288 288 287 287 287 287 287 288 289 291
258 260 262 262 263 264 264 266 268 268 268 268 269 268 269 270 269 270 270 273 275 277 278 279 282 285 287 287 286 287 288 289 289 286 286 286 285 285 286 287 287 286 287 289
260 260 261 262 262 262 263 265 266 267 267 268 268 269 270 269 268 268 269 272 274 276 277 278 280 283 285 285 285 286 287 287 287 286 285 285 285 284 283 284 285 286 286 288
262 262 262 262 262 262 263 265 266 267 267 268 268 269 270 269 266 266 268 270 273 275 276 277 279 281 283 283 283 284 285 285 285 285 285 285 284 283 282 284 284 285 285 287
263 262 263 262 262 262 263 265 267 267 267 268 268 268 268 268 267 268 269 270 272 275 276 277 278 280 281 282 282 282 283 284 285 285 284 284 283 283 283 283 284 284 286 289
262 263 263 263 262 262 263 265 265 266 267 268 268 269 268 267 267 268 270 270 271 274 276 277 278 280 281 281 280 281 281 282 283 285 283 283 282 282 283 283 285 287 288 289
262 263 263 262 262 263 264 266 266 267 268 268 268 269 268 268 268 270 270 272 273 274 275 276 278 280 280 280 279 279 280 281 282 284 285 285 284 284 284 284 285 286 287 288
262 263 262 262 263 263 264 266 267 268 269 268 268 270 270 270 271 272 274 275 276 275 275 277 278 279 280 279 278 279 279 281 282 284 284 285 285 285 285 286 286 287 289 289
262 262 262 262 263 265 266 268 267 268 268 269 270 271 272 273 274 274 275 276 276 277 278 278 278 279 279 279 278 278 279 280 283 285 286 285 284 284 285 286 287 287 288 289
260 261 262 261 263 264 266 269 271 271 271 273 274 275 276 275 275 275 275 276 278 278 278 277 277 277 278 279 279 278 279 281 282 284 284 284 283 284 285 285 286 286 286 287
260 261 262 263 263 264 266 268 271 272 272 275 276 277 277 278 277 276 276 277 278 279 278 276 276 276 277 279 279 279 280 281 282 283 283 283 283 283 284 284 284 285 286 287
261 260 261 263 265 267 268 270 274 274 273 275 276 277 277 278 279 279 279 279 279 278 277 277 277 277 278 280 280 280 280 281 282 283 283 283 282 282 282 283 284 285 287 288
261 261 263 265 266 268 270 272 275 275 274 275 277 279 280 280 280 282 284 283 282 280 278 277 278 278 278 280 281 281 282 283 284 283 282 282 282 281 282 284 286 287 288 288
264 263 265 267 268 270 273 276 278 278 278 279 280 281 282 284 284 285 285 283 282 281 280 278 278 277 279 280 281 281 282 283 283 282 283 282 282 282 284 285 286 287 287 288
266 267 268 270 272 274 275 276 278 280 281 281 281 282 283 283 284 284 284 284 280 280 281 281 279 278 280 280 281 282 282 283 282 282 283 284 284 284 285 286 286 287 287 288
268 269 271 273 274 274 276 278 280 282 283 283 282 282 284 285 284 283 284 284 282 283 284 284 282 282 282 281 282 282 282 283 283 284 284 285 286 285 285 285 286 287 288 287
268 270 272 274 276 278 279 280 282 284 285 286 286 286 286 286 286 286 284 283 284 284 285 284 283 283 283 283 283 282 283 283 284 284 285 286 286 286 286 285 285 286 288 288
273 274 275 276 278 280 282 284 285 286 286 288 289 290 290 290 289 289 286 285 285 286 285 283 284 284 285 287 287 286 286 286 287 287 288 287 286 286 287 287 287 287 287 288
275 274 276 278 280 282 283 283 284 285 285 287 289 291 291 291 290 289 288 286 285 286 285 285 287 288 289 290 290 289 288 288 289 289 287 286 286 286 287 287 287 287 287 287
274 275 277 278 280 283 285 285 285 286 288 289 290 290 290 290 291 291 291 290 288 287 286 285 287 287 287 288 289 290 290 291 290 289 287 287 286 286 286 286 287 286 286 287
Height
5857 5858 5859 5861 5862 5863 5864 5864 5865 5867 5868 5869 5869 5870 5870 5870 5870 5869 5869 5868 5868 5866 5865 5863 5862 5861 5860 5859 5857 5856 5854 5853 5852 5851 5850 5848 5847 5845 5844 5843 5841 5840 5839 5838
5849 5851 5852 5853 5855 5856 5857 5857 5858 5859 5861 5863 5863 5863 5864 5864 5863 5863 5863 5862 5861 5860 5859 5857 5856 5855 5854 5853 5851 5849 5848 5846 5845 5844 5843 5842 5840 5838 5837 5836 5834 5833 5832 5831
5841 5843 5843 5845 5848 5849 5849 5850 5851 5852 5854 5855 5855 5856 5857 5857 5857 5856 5856 5855 5855 5854 5852 5851 5850 5849 5847 5846 5844 5842 5841 5839 5838 5837 5836 5834 5832 5830 5829 5827 5826 5826 5825 5823
5833 5835 5835 5840 5840 5841 5841 5843 5844 5844 5846 5846 5848 5848 5849 5850 5850 5849 5849 5848 5847 5846 5845 5844 5843 5842 5840 5838 5836 5835 5834 5832 5831 5829 5828 5826 5824 5822 5820 5819 5818 5817 5816 5815
5824 5825 5827 5831 5832 5833 5834 5835 5836 5836 5837 5838 5839 5840 5841 5841 5841 5841 5841 5840 5839 5839 5838 5836 5835 5834 5831 5830 5828 5827 5825 5824 5822 5821 5819 5817 5815 5813 5812 5811 5811 5809 5808 5806
5816 5817 5819 5824 5824 5824 5826 5826 5828 5828 5829 5830 5830 5831 5833 5832 5832 5831 5831 5831 5830 5830 5829 5828 5827 5825 5824 5822 5820 5819 5817 5815 5814 5812 5810 5808 5807 5806 5804 5803 5802 5801 5800 5798
5807 5808 5810 5814 5815 5816 5817 5819 5819 5819 5820 5820 5821 5822 5823 5822 5822 5822 5821 5821 5820 5820 5819 5819 5817 5816 5815 5814 5812 5811 5809 5807 5805 5803 5802 5801 5799 5798 5796 5795 5794 5793 5792 5790
5798 5799 5804 5805 5806 5807 5808 5808 5808 5809 5810 5811 5811 5812 5812 5812 5812 5812 5812 5811 5811 5810 5810 5809 5808 5807 5806 5805 5804 5802 5800 5799 5797 5795 5794 5793 5791 5790 5789 5787 5786 5785 5783 5781
5790 5793 5794 5795 5796 5797 5798 5798 5799 5799 5800 5800 5801 5802 5802 5802 5802 5802 5802 5801 5801 5801 5800 5799 5799 5798 5797 5796 5795 5794 5792 5790 5788 5787 5785 5784 5783 5781 5780 5779 5777 5776 5774 5773
5780 5783 5784 5785 5786 5787 5788 5788 5789 5789 5790 5790 5791 5791 5792 5792 5792 5792 5792 5792 5791 5791 5790 5790 5789 5788 5787 5787 5785 5784 5783 5781 5779 5778 5776 5775 5773 5772 5771 5770 5768 5767 5765 5763
5770 5772 5774 5775 5776 5777 5778 5778 5778 5779 5779 5779 5780 5780 5781 5781 5781 5782 5782 5781 5781 5781 5780 5780 5779 5778 5777 5777 5775 5774 5773 5772 5770 5768 5767 5765 5764 5762 5761 5760 5758 5757 5755 5753
5761 5763 5764 5766 5766 5767 5767 5768 5768 5769 5769 5769 5769 5770 5770 5770 5771 5771 5772 5771 5771 5770 5770 5769 5768 5767 5767 5766 5765 5765 5764 5762 5761 5759 5758 5756 5754 5753 5751 5750 5748 5746 5745 5743
5752 5753 5754 5755 5756 5757 5757 5758 5758 5758 5759 5759 5759 5759 5759 5760 5760 5761 5761 5760 5760 5760 5759 5759 5758 5757 5756 5755 5755 5754 5754 5753 5751 5750 5748 5746 5744 5743 5742 5740 5738 5737 5735 5733
5743 5744 5745 5746 5746 5747 5747 5748 5748 5749 5749 5749 5749 5749 5749 5750 5750 5750 5750 5750 5749 5749 5748 5748 5747 5746 5745 5744 5744 5744 5743 5742 5741 5740 5738 5736 5735 5733 5732 5730 5729 5727 5725 5723
5734 5735 5736 5737 5737 5738 5739 5739 5739 5740 5740 5740 5740 5740 5740 5740 5740 5740 5740 5739 5739 5738 5738 5737 5736 5736 5735 5734 5734 5733 5733 5732 5731 5729 5728 5726 5725 5723 5722 5720 5718 5717 5715 5714
5726 5726 5727 5728 5729 5730 5730 5730 5730 5731 5731 5730 5731 5730 5730 5730 5730 5730 5729 5729 5728 5727 5727 5726 5726 5725 5724 5724 5724 5723 5722 5721 5720 5719 5718 5716 5715 5713 5712 5710 5709 5707 5706 5704
5719 5719 5720 5720 5721 5722 5722 5722 5722 5722 5722 5721 5721 5721 5720 5720 5720 5719 5718 5718 5717 5716 5715 5715 5715 5714 5714 5714 5713 5713 5712 5711 5710 5709 5707 5706 5704 5703 5701 5700 5699 5697 5696 5694
5712 5712 5713 5714 5714 5714 5715 5714 5714 5714 5713 5713 5712 5712 5711 5710 5709 5709 5708 5707 5707 5706 5705 5705 5705 5704 5704 5703 5703 5702 5701 5700 5699 5698 5697 5695 5694 5693 5691 5690 5689 5688 5686 5685
5705 5705 5706 5706 5707 5707 5707 5706 5706 5706 5705 5705 5704 5703 5702 5701 5700 5699 5698 5697 5697 5696 5696 5695 5695 5695 5694 5693 5693 5692 5691 5690 5689 5687 5686 5685 5684 5683 5682 5681 5679 5678 5677 5675
5699 5699 5699 5700 5700 5700 5700 5699 5699 5698 5697 5697 5696 5695 5694 5693 5692 5690 5689 5688 5687 5686 5685 5685 5685 5685 5684 5683 5683 5682 5681 5680 5679 5677 5676 5676 5675 5674 5673 5671 5670 5669 5667 5666
5693 5693 5693 5693 5693 5693 5693 5692 5692 5691 5690 5689 5688 5687 5686 5685 5684 5682 5681 5680 5679 5678 5677 5677 5676 5676 5675 5674 5673 5673 5672 5671 5669 5668 5668 5667 5666 5665 5663 5662 5661 5660 5658 5657
5687 5687 5687 5687 5687 5686 5686 5685 5685 5684 5683 5682 5681 5680 5679 5678 5676 5675 5674 5673 5672 5671 5670 5669 5669 5668 5667 5666 5665 5664 5663 5662 5661 5660 5659 5658 5657 5656 5655 5654 5652 5651 5650 5648
5681 5681 5681 5681 5681 5680 5680 5679 5678 5677 5676 5675 5674 5673 5672 5671 5669 5668 5667 5666 5665 5664 5663 5662 5661 5660 5659 5658 5657 5656 5655 5654 5653 5652 5651 5650 5648 5647 5646 5645 5644 5643 5642 5640
5675 5675 5675 5675 5674 5674 5674 5673 5672 5671 5670 5669 5668 5667 5665 5664 5663 5662 5661 5659 5658 5657 5656 5655 5654 5653 5652 5651 5649 5648 5647 5646 5645 5644 5643 5641 5640 5639 5638 5637 5636 5635 5633 5632
5670 5670 5669 5669 5669 5668 5668 5667 5666 5665 5664 5663 5662 5661 5659 5658 5657 5656 5654 5653 5652 5651 5649 5648 5647 5646 5644 5643 5642 5641 5640 5639 5637 5636 5635 5634 5632 5631 5630 5629 5628 5627 5626 5625
5665 5664 5664 5663 5663 5663 5662 5661 5660 5659 5658 5657 5656 5655 5653 5652 5651 5649 5648 5647 5646 5644 5643 5642 5640 5639 5638 5636 5635 5633 5632 5631 5630 5629 5627 5626 5625 5624 5622 5621 5620 5619 5618 5617
5659 5659 5659 5658 5658 5657 5657 5656 5655 5654 5653 5652 5651 5649 5648 5647 5645 5644 5643 5641 5640 5638 5637 5636 5634 5633 5631 5630 5628 5627 5626 5624 5623 5622 5620 5619 5618 5616 5615 5614 5612 5611 5610 5609